Home > Weather > Tripoli > Past weeks

Flag for Libya Weather for the Past 2 Weeks in Tripoli, Libya

Now
70 °F

Sunny.


Feels Like: 70 °F
Forecast: 62 / 71 °F
Wind: 12 mph from Northwest

Location: Djerba Mellita

Current Time: May 3, 2016 at 2:46:11 PM

Latest Report: May 3, 2016 at 2:00 PM


Visibility: 10 mi

Pressure: 30.09 "Hg

Humidity: 38%

Dew Point: 43 °F

Location of TripoliLocation

Historic Weather in Tripoli — Graph

°F

Tripoli Temperature Yesterday

Maximum temperature yesterday: 72 °F (at 5:00 PM)
Minimum temperature yesterday: 57 °F (at 3:00 AM)
Average temperature yesterday: 65 °F

High & Low Weather Summary for the Past Weeks

 TemperatureHumidityPressure
High84 °F (Apr 27, 3:00 PM)94% (Apr 21, 1:30 AM)30.12 "Hg (Apr 21, 1:30 AM)
Low57 °F (May 2, 3:00 AM)26% (Apr 27, 11:30 AM)29.62 "Hg (Apr 28, 5:30 PM)
Average68 °F67%29.92 "Hg
* Reported Apr 18 1:00 PM — May 3 1:30 PM, Tripoli, Weather by CustomWeather, © 2016

Note: Actual official high and low records may vary slightly from our data, if they occured in-between our weather recording intervals... More about our weather records

Advertising

Tripoli Weather History for the Previous 24 Hours

Scroll right to see more
 ConditionsComfort  
Time TempWeatherWind HumidityBarometerVisibility
1:30 PM
Tue, May 3
70 °FSunny.13 mph38%30.12 "Hg10 mi
1:00 PM70 °FSunny.16 mph38%30.12 "Hg10 mi
12:30 PM68 °FSunny.16 mph40%30.12 "Hg10 mi
12:00 PM68 °FSunny.18 mph40%30.12 "Hg10 mi
11:30 AM68 °FSunny.20 mph40%30.12 "Hg10 mi
11:00 AM66 °FSunny.16 mph46%30.12 "Hg10 mi
10:30 AM66 °FSunny.17 mph46%30.12 "Hg10 mi
10:00 AM66 °FSunny.18 mph46%30.09 "Hg10 mi
9:30 AM66 °FSunny.20 mph46%30.09 "Hg10 mi
9:00 AM66 °FSunny.20 mph46%30.09 "Hg10 mi
8:30 AM64 °FSunny.20 mph46%30.09 "Hg10 mi
8:00 AM64 °FSunny.16 mph46%30.07 "Hg10 mi
7:30 AM64 °FPassing clouds.18 mph46%30.07 "Hg5 mi
7:00 AM63 °FPassing clouds.18 mph49%30.07 "Hg5 mi
6:30 AM64 °FPassing clouds.20 mph46%30.07 "Hg5 mi
6:00 AM63 °FClear.18 mph45%30.07 "Hg5 mi
5:30 AM63 °FClear.18 mph45%30.07 "Hg5 mi
5:00 AM64 °FClear.18 mph43%30.04 "Hg5 mi
4:30 AM64 °FMild.16 mph40%30.04 "HgN/A
3:30 AM64 °FPassing clouds.17 mph43%30.04 "HgN/A
3:00 AM64 °FPassing clouds.17 mph40%30.07 "HgN/A
2:30 AM64 °FPassing clouds.17 mph40%30.07 "HgN/A
2:00 AM64 °FPassing clouds.12 mph49%30.07 "HgN/A
1:30 AM64 °FPassing clouds.13 mph49%30.07 "HgN/A
1:00 AM63 °FPassing clouds.9 mph49%30.07 "HgN/A
12:30 AM63 °FPassing clouds.No wind49%30.07 "HgN/A
12:00 AM64 °FPassing clouds.3 mph46%30.07 "HgN/A
11:30 PM
Mon, May 2
64 °FPassing clouds.5 mph46%30.07 "HgN/A
11:00 PM66 °FPassing clouds.7 mph43%30.07 "HgN/A
10:30 PM64 °FPassing clouds.7 mph43%30.04 "HgN/A
10:00 PM66 °FPassing clouds.10 mph37%30.04 "HgN/A
9:30 PM66 °FPassing clouds.15 mph40%30.04 "HgN/A
9:00 PM66 °FPassing clouds.17 mph40%30.01 "HgN/A
8:30 PM68 °FPassing clouds.17 mph40%30.01 "HgN/A
8:00 PM68 °FPassing clouds.17 mph38%29.98 "HgN/A
7:30 PM70 °FPassing clouds.13 mph33%29.98 "HgN/A
7:00 PM72 °FPassing clouds.14 mph36%29.98 "HgN/A
6:30 PM72 °FPassing clouds.13 mph33%29.95 "HgN/A
6:00 PM72 °FPassing clouds.8 mph36%29.95 "HgN/A
5:30 PM72 °FPassing clouds.8 mph33%29.95 "HgN/A
5:00 PM72 °FPassing clouds.9 mph33%29.98 "HgN/A
4:30 PM70 °FPassing clouds.12 mph38%29.98 "HgN/A
4:00 PM70 °FPassing clouds.10 mph33%29.98 "HgN/A
3:30 PM70 °FPassing clouds.10 mph35%29.98 "HgN/A
3:00 PM68 °FPassing clouds.8 mph35%30.01 "HgN/A
2:30 PM66 °FPassing clouds.13 mph37%30.01 "HgN/A
2:00 PM66 °FPassing clouds.14 mph40%30.01 "HgN/A
Weather by CustomWeather, © 2016

See weather overviewHow to use our weather pages